Location: Recife
(8.0585°S, 34.8848°W)
Time: 22:09:00
(UTC-03:00)

Vanguard 1 Rocket - Pass Details

Date: 17 April 2026
Orbit: 655 x 4212 km, 34.3° (Epoch: 12 May)

Event Time Altitude Azimuth Distance (km) Brightness Sun altitude
Rises 06:41:14 0° 300° (WNW) 4,298 10.4 18.4°
Reaches altitude 10° 06:44:45 10° 297° (WNW) 2,903 9.6 19.2°
Maximum altitude 06:51:00 63° 217° (SW) 850 7.3 20.7°
Drops below altitude 10° 06:55:27 10° 135° (SE) 2,080 9.8 21.8°
Sets 06:57:35 0° 131° (SE) 2,972 10.5 22.3°
